Retour au catalogue

FREGAT DEB

LostHEO
NORAD 46019·DEBRIS·🇷🇺 Russia

Lancé Jul 18, 2011 depuis Baikonur Cosmodrome

Loading…

Prochains Passages (prochaines 24 heures)

TLE

PériméSource: Space-Track

Époque: Aug 30, 2020, 18:40 UTC

1 46019U 11037HW  20243.77841792  .00272251  00000-0  13111+0 0  9993
2 46019  51.6698 255.1576 2865053 125.1234 265.2655  9.22889569  2983

Suivez FREGAT DEB en temps réel avec AllMySat

Download on the App Store